Terug naar catalogus

STARLINK-3996

ActiefCommunicatieVLEO
NORAD 52617·PAYLOAD·🇺🇸 United States

Gelanceerd May 14, 2022 vanaf Cape Canaveral Space Force Station

Loading…

Volgende Passages (komende 24 uur)

TLE

VersSource: CelesTrak SupGP

Epoch: Sep 14, 2026, 21:07 UTC

1 52617C 22052V   26257.88034722 -.00039225  00000+0 -24606-2 0  2577
2 52617  53.1572 139.1842 0001480  93.0686  15.1822 15.08842805    10

Volg STARLINK-3996 in realtime met AllMySat

Download on the App Store